User: anonymous   Login
Location: Brachbach
(49.1847°N, 9.7240°E)
Time: 18:26:20
(UTC+00:00)
Language:

FENGYUN 1C DEB - Orbit

View from above orbital plane
View from above orbital plane
View from above satellite
View from above satellite

Ground track
Ground track

The orbit data is extracted from the following two-line orbital elements,

1 32225U 99025CVX 24280.86174593  .00001645  00000-0  89461-3 0  9995
2 32225  99.1496 315.6317 0071863 342.3888  17.4793 14.12447290620183
Epoch (UTC): 06 October 2024 20:40:54
Eccentricity: 0.0071863
inclination: 99.1496°
perigee height: 799 km
apogee height: 903 km
right ascension of ascending node: 315.6317°
argument of perigee: 342.3888°
revolutions per day: 14.12447290
mean anomaly at epoch: 17.4793°
orbit number at epoch: 62018

The dashed part of the orbit path shows where the satellite is in the earth's shadow,  

DLR